sat.trackr.live / text

‹ back to catalog

GONETS-M 12

NORAD 40553 · 2015-020B

PAYLOAD ACTIVE UNKNOWN

§ Identity

Operator
Country
CIS
Launch date
2015-03-31
Launch site
PLMSC
Launch vehicle
Mass (kg)
RCS (m²)
1.59

External: N2YO · Heavens-Above · Gunter

§ Orbital elements

Epoch: 2026-09-20T05:01:40.069056Z

Period
115.86 min
Inclination
82.4938°
Eccentricity
0.0016173
Mean motion
12.42893986 rev/d
Perigee alt
1,481.6 km
Apogee alt
1,507.1 km
Semi-major
7,872.5 km
B*
2.8917e-4
RAAN
332.9419°
Arg perigee
137.6489°
Mean anomaly
222.5843°
Rev number
52,053

§ Raw data

GONETS-M 121 40553U 15020B   26263.20949154  .00000050  00000+0  28917-3 0  99922 40553  82.4938 332.9419 0016173 137.6489 222.5843 12.42893986520533

JSON: /api/v1/satellites/40553 · /tle

For live sub-satellite position, see the globe view (requires WebGL).

§ Visibility from observer

Set your observer location to see the next 7 days of passes ≥ 10°. The values pass through the URL so the page stays shareable.

No JS? Fill the form by hand. The geolocation button needs JavaScript.

§ Radio — SatNOGS DB

ModeDescriptionDownlinkUplink
FM Telemetry 266.951 MHz
FM UHF Unknown 387.062 MHz
FM UHF Unknown 387.625 MHz
FM UHF Unknown 387.837 MHz

4 transmitters · refreshed weekly from db.satnogs.org